GW5055 Weather Reports


Display with metric or nautical units.
time (UTC)temp
F
wind
direction
speed
MPH
gust
MPH
rain 1hr
in
rain 24hr
in
rain mn
in
humidity
%
barometer
mb
20260507010649 44 235 6.0 7.0 0.00 0.36 0.36 86 1011.6
20260507010145 44 290 2.0 7.0 0.00 0.36 0.36 86 1011.6
20260507005643 44 313 5.0 6.0 0.00 0.36 0.36 86 1011.5
20260507005139 44 266 4.0 6.0 0.00 0.36 0.36 87 1011.6
20260507004636 44 218 3.0 7.0 0.00 0.36 0.36 86 1011.5
20260507004133 44 258 3.0 6.0 0.00 0.36 0.36 86 1011.6
20260507003630 44 243 3.0 6.0 0.00 0.36 0.36 85 1011.5
20260507003124 44 231 9.0 13.0 0.00 0.36 0.36 84 1011.5
20260507002621 44 250 4.0 9.0 0.00 0.36 0.36 84 1011.5
20260507002117 44 217 6.0 11.0 0.00 0.36 0.36 83 1011.4
20260507001614 44 217 5.0 6.0 0.00 0.36 0.36 83 1011.2
20260507001111 44 239 6.0 11.0 0.00 0.36 0.36 82 1011.2
20260507000608 44 250 3.0 7.0 0.00 0.36 0.36 83 1011.4
20260506235601 44 279 5.0 8.0 0.00 0.36 0.36 83 1011.2
20260506235100 45 203 4.0 15.0 0.00 0.36 0.36 83 1011.0
20260506234558 45 170 3.0 7.0 0.00 0.36 0.36 85 1011.1
20260506234055 45 271 3.0 8.0 0.00 0.36 0.36 84 1011.0
20260506233552 45 267 3.0 8.0 0.00 0.36 0.36 84 1010.9
20260506233049 45 219 5.0 9.0 0.00 0.36 0.36 84 1010.8
20260506232545 45 234 4.0 13.0 0.00 0.36 0.36 83 1010.9
20260506232041 46 214 4.0 7.0 0.00 0.36 0.36 83 1010.9
20260506231538 46 225 1.0 11.0 0.00 0.36 0.36 83 1010.9
20260506231036 46 202 4.0 8.0 0.00 0.36 0.36 84 1011.0
20260506230532 46 191 6.0 11.0 0.00 0.36 0.36 83 1010.7
20260506230030 46 167 6.0 8.0 0.00 0.36 0.36 83 1010.5
20260506225527 46 203 3.0 6.0 0.00 0.36 0.36 83 1010.6
20260506225023 46 215 2.0 8.0 0.00 0.36 0.36 82 1010.8
20260506224520 46 219 3.0 8.0 0.00 0.36 0.36 82 1010.4
20260506224016 46 170 4.0 11.0 0.00 0.36 0.36 81 1010.6
20260506223512 46 224 4.0 6.0 0.00 0.36 0.36 82 1010.6
20260506223009 46 198 5.0 8.0 0.00 0.36 0.36 82 1010.5
20260506222506 47 185 1.0 6.0 0.00 0.36 0.36 84 1010.4
20260506222002 47 188 2.0 6.0 0.00 0.36 0.36 84 1010.5
20260506221459 47 220 3.0 4.0 0.00 0.36 0.36 82 1010.2
20260506220958 48 244 6.0 7.0 0.00 0.36 0.36 81 1010.4
20260506220453 48 199 5.0 8.0 0.00 0.36 0.36 81 1010.3
20260506215949 48 192 1.0 4.0 0.00 0.36 0.36 81 1010.4
20260506215446 48 189 1.0 7.0 0.00 0.36 0.36 82 1010.3
20260506214947 49 226 2.0 7.0 0.00 0.36 0.36 82 1010.3
20260506214444 49 224 1.0 3.0 0.00 0.36 0.36 81 1010.3
20260506213941 49 188 2.0 3.0 0.00 0.36 0.36 80 1010.3
20260506213439 50 234 2.0 2.0 0.00 0.36 0.36 80 1010.2
20260506212936 49 193 2.0 3.0 0.00 0.36 0.36 79 1010.2
20260506212432 49 164 1.0 4.0 0.00 0.36 0.36 82 1010.3
20260506211932 49 184 2.0 3.0 0.00 0.36 0.36 83 1010.3
20260506211429 49 176 4.0 4.0 0.00 0.36 0.36 81 1010.3
20260506210926 48 170 2.0 3.0 0.00 0.36 0.36 82 1010.2
20260506210422 49 161 4.0 7.0 0.00 0.36 0.36 80 1010.3
20260506205920 48 148 3.0 4.0 0.00 0.36 0.36 80 1010.4
20260506205415 48 158 3.0 4.0 0.00 0.36 0.36 80 1010.1
20260506204912 49 178 4.0 4.0 0.00 0.36 0.36 78 1010.1
20260506204410 49 176 1.0 2.0 0.00 0.36 0.36 78 1010.1
20260506203907 50 160 2.0 3.0 0.00 0.36 0.36 77 1010.2
20260506203404 51 185 0.0 0.0 0.00 0.36 0.36 75 1010.0
20260506202901 50 172 0.0 0.0 0.00 0.36 0.36 72 1010.2
20260506202358 50 133 0.0 0.0 0.00 0.36 0.36 75 1010.0
20260506201855 49 229 3.0 3.0 0.00 0.36 0.36 75 1010.2
20260506201352 49 241 3.0 4.0 0.00 0.36 0.36 75 1010.2
20260506200848 48 342 2.0 4.0 0.00 0.36 0.36 77 1010.5
20260506200344 49 208 3.0 4.0 0.00 0.36 0.36 76 1010.3
20260506195841 50 207 1.0 3.0 0.00 0.36 0.36 73 1010.2
20260506195338 49 287 3.0 3.0 0.00 0.36 0.36 74 1010.3
20260506194835 48 222 2.0 4.0 0.00 0.36 0.36 76 1010.2
20260506194332 48 260 3.0 4.0 0.00 0.36 0.36 77 1010.2
20260506193829 48 287 4.0 4.0 0.00 0.36 0.36 76 1010.2
20260506193326 48 310 3.0 6.0 0.00 0.36 0.36 76 1010.3
20260506192822 48 271 3.0 6.0 0.00 0.36 0.36 77 1010.4
20260506192319 48 226 2.0 6.0 0.00 0.36 0.36 78 1010.4
20260506191816 50 195 2.0 2.0 0.00 0.36 0.36 74 1010.5
20260506191312 49 274 4.0 4.0 0.00 0.36 0.36 75 1010.2
20260506190810 49 252 2.0 3.0 0.00 0.36 0.36 79 1010.0
20260506190306 48 182 0.0 3.0 0.00 0.36 0.36 78 1009.9
20260506185803 48 305 3.0 4.0 0.00 0.36 0.36 78 1010.2
20260506185300 48 274 3.0 4.0 0.00 0.36 0.36 79 1010.2
20260506184757 50 285 4.0 6.0 0.00 0.36 0.36 76 1010.2
20260506184254 49 303 1.0 6.0 0.00 0.36 0.36 78 1010.3
20260506183751 49 194 0.0 2.0 0.00 0.36 0.36 76 1010.2
20260506183251 50 178 1.0 2.0 0.00 0.36 0.36 76 1010.5
20260506182749 49 310 3.0 4.0 0.00 0.36 0.36 79 1010.4
20260506182246 48 225 2.0 3.0 0.00 0.36 0.36 80 1010.5
20260506181744 48 183 0.0 2.0 0.00 0.36 0.36 81 1010.6
20260506181241 47 184 1.0 2.0 0.00 0.36 0.36 81 1010.5
20260506180738 47 184 3.0 4.0 0.00 0.36 0.36 82 1010.5
20260506180234 47 267 1.0 3.0 0.00 0.36 0.36 81 1010.4
20260506175730 47 190 0.0 2.0 0.00 0.36 0.36 83 1010.4
20260506175227 46 234 2.0 3.0 0.00 0.36 0.36 83 1010.6
20260506174725 47 178 1.0 3.0 0.00 0.36 0.36 81 1010.5
20260506174221 47 183 1.0 2.0 0.00 0.36 0.36 82 1010.4
20260506173719 47 303 2.0 3.0 0.00 0.36 0.36 81 1010.4
20260506173216 46 187 1.0 3.0 0.00 0.36 0.36 83 1010.6
20260506172713 46 329 2.0 3.0 0.00 0.36 0.36 82 1010.4
20260506172209 47 213 1.0 2.0 0.00 0.36 0.36 80 1010.3
20260506171707 46 189 1.0 1.0 0.00 0.36 0.36 82 1010.4
20260506171204 45 349 2.0 2.0 0.00 0.36 0.36 83 1010.5
20260506170702 46 193 0.0 1.0 0.00 0.36 0.36 83 1010.1
20260506170158 46 26 1.0 2.0 0.00 0.36 0.36 83 1010.4
20260506165657 45 110 0.0 2.0 0.00 0.36 0.36 84 1010.3
20260506165153 45 30 3.0 4.0 0.00 0.36 0.36 84 1010.3
20260506164650 45 191 0.0 1.0 0.00 0.36 0.36 86 1010.3
20260506164148 45 78 0.0 2.0 0.00 0.36 0.36 86 1010.1
20260506163643 46 169 2.0 4.0 0.00 0.36 0.36 85 1010.2
20260506163139 45 148 0.0 1.0 0.00 0.36 0.36 86 1010.0
20260506162635 46 65 2.0 4.0 0.00 0.36 0.36 86 1009.9
20260506162133 45 47 1.0 6.0 0.00 0.36 0.36 87 1010.0
20260506161630 45 152 3.0 8.0 0.00 0.36 0.36 86 1010.1
20260506161127 45 96 2.0 4.0 0.00 0.36 0.36 86 1010.0
20260506160624 44 187 1.0 4.0 0.00 0.36 0.36 88 1010.2
20260506160121 45 40 4.0 4.0 0.00 0.36 0.36 87 1010.1
20260506155620 44 186 1.0 6.0 0.00 0.36 0.36 88 1010.3
20260506155116 44 357 3.0 6.0 0.00 0.36 0.36 91 1010.6
20260506153218 44 48 4.0 7.0 0.00 0.36 0.36 89 1010.5
20260506152715 44 2 5.0 6.0 0.00 0.36 0.36 90 1010.5
20260506152213 44 164 1.0 6.0 0.00 0.36 0.36 93 1010.7
20260506151712 44 358 3.0 6.0 0.00 0.36 0.36 92 1010.5
20260506151208 44 37 2.0 2.0 0.00 0.36 0.36 93 1010.6
20260506150704 43 339 2.0 3.0 0.00 0.36 0.36 93 1010.4
20260506150201 43 350 2.0 7.0 0.00 0.36 0.36 93 1010.5
20260506145658 43 269 3.0 8.0 0.00 0.36 0.36 92 1010.6
20260506145154 43 347 5.0 7.0 0.00 0.36 0.36 92 1010.5
20260506144653 43 116 1.0 4.0 0.00 0.36 0.36 94 1010.4
20260506144149 43 51 4.0 6.0 0.00 0.36 0.36 93 1010.6
20260506143646 42 24 1.0 4.0 0.00 0.36 0.36 94 1010.4
20260506143144 42 33 2.0 7.0 0.00 0.36 0.36 92 1010.4
20260506142643 42 3 3.0 7.0 0.00 0.36 0.36 92 1010.4
20260506142140 42 117 3.0 7.0 0.00 0.36 0.36 91 1010.1
20260506141638 42 44 4.0 8.0 0.00 0.36 0.36 92 1010.4
20260506141136 42 121 1.0 3.0 0.00 0.36 0.36 94 1010.3
20260506140633 43 34 3.0 4.0 0.00 0.36 0.36 95 1010.4
20260506140130 42 137 2.0 8.0 0.00 0.36 0.36 95 1010.1
20260506135627 43 25 3.0 4.0 0.00 0.36 0.36 96 1010.1
20260506135123 43 40 4.0 7.0 0.00 0.36 0.36 96 1010.2
20260506134620 43 27 4.0 6.0 0.00 0.36 0.36 96 1010.1
20260506134115 42 8 2.0 4.0 0.00 0.36 0.36 97 1010.0
20260506133613 42 54 2.0 4.0 0.05 0.36 0.36 97 1010.3
20260506133110 42 55 2.0 3.0 0.05 0.36 0.36 97 1010.2
20260506132608 42 63 0.0 3.0 0.00 0.35 0.35 97 1010.2
20260506132104 42 6 2.0 3.0 0.00 0.35 0.35 98 1010.0
20260506131602 42 119 1.0 3.0 0.00 0.35 0.35 98 1010.0
20260506131058 42 97 0.0 6.0 0.07 0.35 0.35 98 1009.8
20260506130555 42 92 3.0 3.0 0.07 0.35 0.35 98 1010.0
20260506130053 42 86 2.0 3.0 0.00 0.34 0.34 98 1009.9
20260506125551 42 111 2.0 4.0 0.07 0.34 0.34 98 1010.0
20260506125048 42 111 1.0 3.0 0.07 0.34 0.34 99 1010.0
20260506124545 42 135 1.0 2.0 0.00 0.33 0.33 99 1010.1
20260506124043 42 132 0.0 1.0 0.05 0.33 0.33 99 1010.1
20260506123541 42 148 0.0 0.0 0.05 0.33 0.33 99 1010.0
20260506123039 42 123 0.0 0.0 0.07 0.32 0.32 99 1010.2
20260506122535 42 160 0.0 0.0 0.07 0.32 0.32 99 1009.9
20260506122034 42 159 0.0 0.0 0.00 0.31 0.31 99 1010.1
20260506121531 42 139 0.0 0.0 0.05 0.31 0.31 99 1010.0
20260506121027 42 131 0.0 0.0 0.05 0.31 0.31 99 1010.0
20260506120525 42 144 0.0 0.0 0.07 0.30 0.30 99 1010.1
20260506120022 42 151 0.0 0.0 0.07 0.30 0.30 98 1010.3
20260506115520 42 143 0.0 1.0 0.00 0.29 0.29 98 1010.2
20260506115018 41 136 0.0 2.0 0.00 0.29 0.29 98 1009.9
20260506114515 42 156 0.0 0.0 0.00 0.29 0.29 98 1010.1
20260506114014 42 150 0.0 0.0 0.00 0.29 0.29 98 1010.2
20260506113511 42 136 0.0 1.0 0.00 0.29 0.29 98 1010.1
20260506113008 41 159 0.0 1.0 0.00 0.29 0.29 98 1010.1
20260506112505 41 156 1.0 2.0 0.05 0.29 0.29 98 1010.0
20260506112002 41 98 2.0 3.0 0.05 0.29 0.29 98 1009.7
20260506111500 42 91 2.0 3.0 0.00 0.28 0.28 99 1009.9
20260506110956 42 105 2.0 3.0 0.00 0.28 0.28 99 1009.4
20260506110455 42 158 1.0 3.0 0.00 0.28 0.28 99 1009.8
20260506105951 42 138 2.0 3.0 0.00 0.28 0.28 99 1009.8
20260506105447 42 136 1.0 2.0 0.07 0.28 0.28 99 1010.1
20260506104945 41 100 1.0 2.0 0.07 0.28 0.28 98 1010.2
20260506104443 41 144 0.0 3.0 0.05 0.27 0.27 98 1010.2
20260506103941 41 144 1.0 2.0 0.00 0.26 0.26 99 1010.2
20260506103438 41 112 1.0 1.0 0.00 0.26 0.26 99 1009.9
20260506102934 41 102 1.0 2.0 0.00 0.26 0.26 99 1010.0
20260506102433 42 110 1.0 1.0 0.07 0.26 0.26 99 1009.9
20260506101930 42 167 0.0 0.0 0.07 0.26 0.26 99 1010.0
20260506101426 42 158 0.0 0.0 0.00 0.25 0.25 99 1010.1
20260506100923 42 157 0.0 0.0 0.00 0.25 0.25 99 1009.9
20260506100421 42 140 0.0 0.0 0.05 0.25 0.25 99 1009.9
20260506095919 42 159 0.0 0.0 0.07 0.24 0.24 99 1010.2
20260506095417 42 154 0.0 0.0 0.07 0.24 0.24 99 1010.3
20260506094913 42 161 1.0 2.0 0.05 0.23 0.23 99 1010.1
20260506094412 42 180 1.0 2.0 0.05 0.23 0.23 99 1010.3
20260506093909 42 180 0.0 2.0 0.07 0.22 0.22 99 1010.3
20260506093407 42 172 1.0 1.0 0.07 0.22 0.22 99 1010.2
20260506092904 42 177 0.0 0.0 0.00 0.21 0.21 99 1010.4
20260506092402 42 174 0.0 0.0 0.07 0.21 0.21 99 1010.2
20260506091858 42 174 0.0 0.0 0.00 0.20 0.20 99 1010.1
20260506091357 42 174 0.0 0.0 0.05 0.20 0.20 99 1010.0
20260506090854 42 173 0.0 0.0 0.05 0.20 0.20 99 1009.9
20260506090351 42 171 0.0 0.0 0.07 0.19 0.19 99 1009.8
20260506085848 42 153 0.0 0.0 0.07 0.19 0.19 99 1010.0
20260506085344 42 171 0.0 0.0 0.05 0.18 0.18 99 1010.1
20260506084841 42 172 0.0 0.0 0.05 0.18 0.18 99 1010.2
20260506084338 42 178 0.0 0.0 0.07 0.17 0.17 99 1010.3
20260506083834 42 179 1.0 1.0 0.07 0.17 0.17 99 1010.3
20260506083332 42 158 0.0 0.0 0.05 0.16 0.16 98 1010.0
20260506082829 42 159 0.0 0.0 0.12 0.16 0.16 98 1010.0
20260506082325 42 164 0.0 0.0 0.07 0.15 0.15 98 1010.1
20260506081822 42 159 0.0 0.0 0.05 0.14 0.14 98 1010.1
20260506081320 42 122 0.0 2.0 0.12 0.14 0.14 98 1010.1
20260506080817 42 167 0.0 0.0 0.07 0.13 0.13 99 1010.2
20260506080313 42 161 0.0 0.0 0.05 0.12 0.12 98 1010.0
20260506073257 42 158 3.0 4.0 0.07 0.08 0.08 99 1010.1
20260506072754 42 171 5.0 6.0 0.00 0.07 0.07 99 1010.2
20260506072252 42 178 6.0 7.0 0.00 0.07 0.07 99 1010.3
20260506071749 42 168 3.0 6.0 0.05 0.07 0.07 99 1010.4
20260506071247 42 167 2.0 3.0 0.05 0.07 0.07 99 1010.2
20260506070744 42 161 3.0 7.0 0.00 0.06 0.06 99 1010.0
20260506070241 42 159 3.0 7.0 0.00 0.06 0.06 99 1010.2
20260506062218 42 170 7.0 9.0 0.00 0.06 0.06 99 1010.7
20260506061714 42 152 5.0 7.0 0.00 0.06 0.06 99 1010.7
20260506061211 42 184 6.0 8.0 0.00 0.06 0.06 99 1010.5
20260506060710 42 167 8.0 9.0 0.00 0.06 0.06 99 1010.4
20260506060206 42 157 4.0 8.0 0.07 0.06 0.06 99 1010.7
20260506051138 43 165 5.0 7.0 0.00 0.04 0.04 99 1010.1
20260506050637 43 187 9.0 13.0 0.07 0.04 0.04 99 1010.4
20260506050133 43 159 9.0 11.0 0.07 0.04 0.04 99 1010.3
20260506045126 43 179 10.0 11.0 0.00 0.03 0.03 99 1010.5
20260506044624 43 182 5.0 7.0 0.00 0.03 0.03 99 1010.5
20260506044121 43 185 6.0 9.0 0.05 0.03 0.03 99 1010.6
20260506043618 43 156 6.0 9.0 0.05 0.03 0.03 99 1010.4
20260506043117 43 156 8.0 10.0 0.00 0.02 0.02 99 1010.5
20260506042615 43 129 6.0 9.0 0.07 0.02 0.02 99 1010.5
20260506042113 43 166 6.0 9.0 0.07 0.02 0.02 98 1010.5
20260506041612 43 168 5.0 9.0 0.00 0.01 0.01 98 1010.4
20260506041108 43 167 7.0 9.0 0.05 0.01 0.01 98 1010.3
20260506040606 43 164 9.0 13.0 0.05 0.01 0.01 98 1010.2
20260506035559 43 166 6.0 8.0 0.00 0.14 0.14 98 1010.7
20260506035055 43 163 7.0 8.0 0.00 0.14 0.14 98 1010.6
20260506034553 43 188 8.0 11.0 0.00 0.14 0.14 98 1010.7
20260506034050 43 177 6.0 9.0 0.00 0.14 0.14 98 1010.7
20260506033547 43 174 6.0 13.0 0.07 0.14 0.14 98 1011.0
20260506033044 43 176 6.0 7.0 0.07 0.14 0.14 98 1011.1
20260506032541 43 190 4.0 7.0 0.00 0.13 0.13 98 1010.9
20260506032038 43 170 9.0 11.0 0.00 0.13 0.13 98 1010.5
20260506031536 43 191 5.0 9.0 0.05 0.13 0.13 98 1010.5
20260506031032 44 177 6.0 8.0 0.05 0.13 0.13 98 1010.5
20260506030530 44 184 6.0 8.0 0.00 0.12 0.12 97 1010.3
20260506030027 44 156 6.0 7.0 0.07 0.12 0.12 98 1010.1
20260506025525 44 148 4.0 6.0 0.07 0.12 0.12 97 1010.2
20260506025020 44 156 5.0 7.0 0.00 0.11 0.11 97 1010.4
20260506024518 44 156 5.0 8.0 0.00 0.11 0.11 97 1010.7
20260506024014 44 149 4.0 8.0 0.05 0.11 0.11 97 1010.8
20260506023510 44 152 5.0 10.0 0.05 0.11 0.11 96 1010.9
20260506023008 44 165 6.0 7.0 0.00 0.10 0.10 95 1011.0
20260506022505 45 167 6.0 7.0 0.00 0.10 0.10 95 1011.1
20260506022002 45 167 6.0 7.0 0.00 0.10 0.10 95 1010.9
20260506021500 45 195 6.0 8.0 0.07 0.10 0.10 95 1010.8
20260506020957 45 165 5.0 6.0 0.00 0.09 0.09 95 1010.7
20260506020454 45 184 5.0 8.0 0.00 0.09 0.09 94 1010.6
20260506015951 45 166 5.0 7.0 0.00 0.09 0.09 95 1010.3
20260506015449 45 172 4.0 7.0 0.00 0.09 0.09 95 1010.1
20260506014945 45 145 4.0 9.0 0.00 0.09 0.09 95 1010.3
20260506014443 45 168 5.0 8.0 0.00 0.09 0.09 95 1010.5
20260506013939 45 180 5.0 8.0 0.00 0.09 0.09 95 1010.3
20260506013437 45 156 4.0 6.0 0.00 0.09 0.09 95 1010.1
20260506012933 45 176 6.0 7.0 0.00 0.09 0.09 96 1010.1
20260506012430 45 179 4.0 4.0 0.00 0.09 0.09 94 1009.9
20260506011926 45 183 2.0 2.0 0.00 0.09 0.09 95 1009.5
20260506011424 45 204 2.0 2.0 0.00 0.09 0.09 95 1009.4